This is the latest recevied weather packets stored in our database for station/object NN5DX-13. If no packets are shown the sender has not sent any weather packets the latest 10 day(s).
| Time | Temp. | Humidity | Pressure | Rain* | Wind** | Luminosity | Snow |
|---|---|---|---|---|---|---|---|
| 1787386221 | 23.33° C | 51% | 1019.6 hPa | 0 mm | - | - | - |
| 1787385921 | 23.33° C | 50% | 1019.6 hPa | 0 mm | - | - | - |
| 1787385621 | 23.33° C | 50% | 1019.6 hPa | 0 mm | - | - | - |
| 1787385321 | 23.33° C | 50% | 1019.5 hPa | 0 mm | - | - | - |
| 1787385021 | 23.33° C | 50% | 1019.6 hPa | 0 mm | - | - | - |
| 1787384722 | 23.33° C | 50% | 1019.4 hPa | 0 mm | - | - | - |
| 1787384421 | 22.78° C | 50% | 1019.4 hPa | 0 mm | - | - | - |
| 1787384121 | 22.78° C | 50% | 1019.4 hPa | 0 mm | - | - | - |
| 1787383821 | 23.33° C | 49% | 1019.5 hPa | 0 mm | - | - | - |
| 1787383521 | 23.33° C | 49% | 1019.8 hPa | 0 mm | - | - | - |
| 1787383221 | 23.33° C | 49% | 1019.7 hPa | 0 mm | - | - | - |
| 1787382921 | 23.33° C | 48% | 1019.5 hPa | 0 mm | - | - | - |
| 1787382621 | 23.33° C | 48% | 1019.6 hPa | 0 mm | - | - | - |
| 1787382321 | 23.89° C | 48% | 1019.8 hPa | 0 mm | - | - | - |
| 1787382022 | 23.89° C | 47% | 1019.8 hPa | 0 mm | - | - | - |
| 1787381721 | 23.89° C | 47% | 1019.8 hPa | 0 mm | - | - | - |
| 1787381421 | 24.44° C | 47% | 1019.8 hPa | 0 mm | - | - | - |
| 1787381121 | 24.44° C | 46% | 1019.6 hPa | 0 mm | - | - | - |
| 1787380821 | 24.44° C | 46% | 1019.6 hPa | 0 mm | - | - | - |
| 1787380521 | 24.44° C | 46% | 1019.5 hPa | 0 mm | - | - | - |
| 1787380222 | 24.44° C | 46% | 1019.5 hPa | 0 mm | - | - | - |
| 1787379921 | 24.44° C | 46% | 1019.6 hPa | 0 mm | - | - | - |
| 1787379621 | 24.44° C | 46% | 1019.6 hPa | 0 mm | - | - | - |
| 1787379321 | 24.44° C | 46% | 1019.6 hPa | 0 mm | - | - | - |
| 1787379021 | 25° C | 46% | 1019.7 hPa | 0 mm | - | - | - |
* Rain latest hour (hover to see other rain measurements)
** Current wind speed in m/s (hover to see current wind gust speed)